Agana Heights, GU (96910)

5:18 AM ChST on August 29, 2015 (GMT +1000)
Maite | | Change Station
CLOSE
Current Station
Personal Weather Station
Location: Maite, GU
Elevation: 140 ft
Nearby Weather Stations
Active Advisory: High Surf Advisory

Elev 140 ft 13.48 °N, 144.76 °E | Updated 3 seconds ago

Partly Cloudy
Partly Cloudy
80.5 °F
Feels Like 86 °F
N
2.0
Wind Variable Wind from WNW
Gusts 5.0 mph

Today
High -- | Low -- °F
--% Chance of Precip.
Yesterday
High -- | Low -- °F
Precip. -- in
6:09 AM 6:34 PM
Waxing Gibbous, 99% visible
Pressure 29.78 in
Visibility 10.0 miles
Clouds Few 1800 ft
Heat Index 86 °F
Dew Point 76 °F
Humidity 86%
Rainfall 0.00 in
Snow Depth Not available.
UV 0.0 out of 12
Pollen Not available.
Air Quality Not available.
Flu Activity Not available.
METAR PGUM 281854Z 00000KT 10SM FEW018 24/23 A2980 RMK AO2 SLP083 T02440233
Pressure 29.78 in
Visibility 10.0 miles
Clouds Few 1800 ft
Heat Index 86 °F
Dew Point 76 °F
Humidity 86%
Rainfall 0.00 in
Snow Depth Not available.
UV 0.0 out of 12
Pollen Not available.
Air Quality Not available.
Flu Activity Not available.
METAR PGUM 281854Z 00000KT 10SM FEW018 24/23 A2980 RMK AO2 SLP083 T02440233

10-Day Weather Forecast

×

Almanac

Astronomy

Aug. 29, 2015 Rise Set
Actual Time
Civil Twilight
Nautical Twilight
Astronomical Twilight
Moon
Length of Visible Light
Length of Day
Tomorrow will be .
, % of the Moon is Illuminated

Today's Extremes

State Highs State Lows

Community

WunderPhotos

Upload Photos

1,850,460 photos uploaded!

WunderBlogs® & News

Nearby

Air Quality

  Air Quality AQ Index Pollutant
Not available.

Snow Depth

Station Depth Elevation

Earthquake Activity

City Distance Mag. Time & Date
Minimum magnitude displayed is 2.5.

Coastal Water Temperatures

Place Temperature

Stations

Nearby Weather Stations

Station Location Temp. Windchill Dew Point Humidity Wind Precip. Elev Updated Type
                   
High Surf Advisory
Statement as of 3:38 PM GMT on August 28, 2015

... High surf advisory now in effect until 6 PM chst Saturday...

Hazardous surf of 8 to 10 feet along north facing shores is
expected tonight. Surf will begin to subside Saturday and is
expected to fall below hazardous levels by Saturday evening.

Precautionary/preparedness actions...

Avoid venturing near exposed reefs and beaches... especially those
facing north... as rip currents will be life threatening.



Kleeschulte